Terug naar catalogus

STARLINK-30932

ActiefCommunicatieVLEO
NORAD 58523·PAYLOAD·🇺🇸 United States

Gelanceerd Dec 7, 2023 vanaf Cape Canaveral Space Force Station

Loading…

Volgende Passages (komende 24 uur)

TLE

VersSource: CelesTrak SupGP

Epoch: Sep 14, 2026, 20:38 UTC

1 58523C 23191R   26257.86020833 -.00012935  00000+0 -46861-3 0  2577
2 58523  43.0011 114.8470 0001299 269.1086 157.6635 15.27577916    16

Volg STARLINK-30932 in realtime met AllMySat

Download on the App Store